Temperature
21 22 22 21 22 22 21 21 21 21 21 21 22 21 21 21 20 19 19 18 18 17 17 17 16 16 16 15 15 15 15 15 15 15 14 14 14 14 14 14 14 13 13 13
20 21 21 21 21 21 21 21 21 21 21 22 22 21 21 20 19 19 18 18 17 17 16 16 16 16 15 15 15 15 14 14 14 14 14 14 14 14 13 13 13 13 13 13
19 20 20 20 21 21 21 21 21 20 20 21 20 20 19 19 19 18 18 17 17 16 16 16 15 15 15 15 14 14 14 14 14 14 13 13 13 13 13 13 13 12 12 12
18 19 18 20 21 21 21 20 21 20 20 20 19 19 18 18 18 18 17 17 16 16 15 15 15 15 14 14 14 14 14 14 13 13 13 13 13 13 13 13 12 12 12 12
18 18 19 20 20 20 20 19 20 19 19 19 19 18 18 18 17 17 16 16 16 15 15 15 14 14 14 14 14 14 13 13 13 13 13 13 12 12 12 12 12 12 12 11
17 17 17 18 19 20 19 18 19 19 18 18 18 17 17 17 17 16 16 15 15 15 14 14 14 14 14 13 13 13 13 13 13 12 12 12 12 12 12 11 11 11 11 11
17 17 18 18 18 19 17 17 17 17 17 17 16 16 16 16 16 15 15 15 14 14 14 14 13 13 13 13 13 13 13 13 12 12 12 12 12 11 11 11 11 11 11 10
17 16 16 18 18 17 16 16 16 16 16 16 15 15 15 15 14 14 14 14 13 13 13 13 13 13 13 12 12 12 12 12 12 12 11 11 11 11 11 10 10 10 10 10
17 17 17 17 17 16 16 16 16 15 15 15 15 14 14 14 14 13 13 13 13 12 12 12 12 12 12 12 12 12 12 12 11 11 11 11 10 10 10 10 9 9 9 9
17 17 16 16 15 15 15 15 15 14 14 14 14 14 13 13 13 13 12 12 12 12 12 12 12 12 12 12 12 11 11 11 11 10 10 10 10 10 9 9 9 9 8 9
16 16 16 15 15 14 14 14 14 14 13 13 13 13 12 12 12 12 12 11 11 11 11 11 11 11 11 11 11 11 11 10 10 10 10 9 9 9 9 9 9 8 8 8
15 15 15 15 14 14 13 13 13 13 12 12 12 12 12 12 11 11 11 11 11 11 10 10 11 11 11 10 10 10 10 10 10 9 9 9 8 8 8 8 8 8 8 8
15 14 14 14 14 13 13 12 12 12 12 12 12 12 11 11 11 11 10 10 10 10 10 10 10 10 10 10 10 9 9 9 9 9 9 8 8 8 8 7 7 7 7 7
14 13 13 13 13 12 12 12 11 11 11 11 11 11 11 10 10 10 10 10 9 9 9 9 9 9 9 9 9 9 9 9 9 8 8 8 7 7 7 7 7 7 7 6
13 13 12 12 12 11 11 11 11 10 10 10 10 10 10 10 10 9 9 9 9 9 9 9 9 9 9 8 8 8 8 8 8 8 7 7 7 7 7 6 6 6 6 6
12 12 11 11 11 11 10 10 10 10 10 10 10 10 9 9 9 9 9 9 8 8 8 8 8 8 8 8 8 8 8 7 7 7 7 7 6 6 6 6 6 5 5 5
12 11 11 10 10 10 10 9 9 9 9 9 9 9 9 9 8 8 8 8 8 7 7 7 7 7 7 7 7 7 7 7 7 7 6 6 6 6 6 5 5 5 5 5
11 11 10 10 10 9 9 9 9 8 8 8 8 8 8 8 8 8 7 7 7 7 7 7 7 7 7 7 6 6 6 6 6 6 6 5 5 5 5 5 5 4 4 4
10 10 9 9 9 9 9 8 8 8 8 8 8 8 7 7 7 7 7 7 7 6 6 6 6 6 6 6 6 6 5 5 5 5 5 5 5 4 4 4 4 4 4 3
9 9 9 9 8 8 8 8 8 8 7 7 7 7 7 7 7 6 6 6 6 6 6 6 6 5 5 5 5 5 5 5 5 4 4 4 4 4 4 3 3 3 3 3
9 8 8 8 8 8 7 7 7 7 7 7 7 7 6 6 6 6 6 5 5 5 5 5 5 5 5 5 5 4 4 4 4 4 4 3 3 3 3 3 3 3 2 2
8 8 8 7 7 7 7 7 7 6 6 6 6 6 6 6 5 5 5 5 5 5 5 5 5 5 4 4 4 4 4 3 3 3 3 3 3 3 3 2 2 2 2 2
8 7 7 7 7 6 6 6 6 6 6 6 5 5 5 5 5 5 5 4 4 4 4 4 4 4 4 4 3 3 3 3 3 3 2 2 2 2 2 2 2 1 1 1
7 7 7 6 6 6 6 5 5 5 5 5 5 5 5 4 4 4 4 4 4 4 4 4 4 3 3 3 3 3 3 2 2 2 2 2 2 1 1 1 1 1 1 1
6 6 6 6 5 5 5 5 5 5 4 4 4 4 4 4 4 4 4 4 3 3 3 3 3 3 3 3 2 2 2 2 2 2 1 1 1 1 1 1 0 0 0 0
6 5 5 5 5 5 4 4 4 4 4 4 4 4 3 3 3 3 3 3 3 3 3 3 2 2 2 2 2 2 2 1 1 1 1 1 0 0 0 -0 -0 -0 -0 -1
5 5 5 5 4 4 4 4 4 3 3 3 3 3 3 3 3 3 3 3 3 2 2 2 2 2 2 2 1 1 1 1 1 0 0 0 -0 -0 -0 -0 -1 -1 -1 -1
Wind_Speed
11 10 11 11 11 10 11 11 10 8 6 3 1 1 1 2 3 3 2 2 2 2 2 2 2 2 2 2 2 1 2 2 3 3 2 3 3 3 4 4 4 4 4 4
12 12 11 13 12 11 11 11 11 9 7 3 2 2 2 1 3 2 2 2 1 1 1 1 1 1 1 2 2 2 1 1 1 2 2 2 3 3 3 3 3 3 4 5
10 9 10 12 9 9 9 8 9 8 5 3 3 3 3 2 2 1 1 1 0 1 1 1 1 1 2 2 2 2 1 1 1 1 2 2 3 3 3 3 3 4 4 4
8 8 10 3 2 4 5 6 4 3 3 3 3 3 3 3 2 1 1 1 1 2 2 2 2 1 1 1 2 2 2 2 1 1 1 2 2 3 3 3 3 4 4 4
6 8 8 5 2 3 4 5 3 2 2 3 4 3 2 3 3 2 1 1 1 1 2 1 2 1 1 1 1 2 2 2 2 1 1 1 2 2 3 3 3 3 3 4
6 7 7 1 2 4 5 4 2 3 3 4 4 4 3 4 3 3 2 2 2 1 1 1 2 1 1 2 2 2 2 2 2 2 1 2 3 2 2 2 2 3 3 3
9 9 5 2 3 3 3 2 6 5 4 5 4 4 4 5 4 3 2 2 3 2 1 2 2 1 1 2 2 2 1 1 2 2 3 3 2 2 1 1 2 3 3 2
7 8 4 3 2 1 3 4 5 6 6 5 5 5 5 5 4 4 3 2 2 2 2 1 1 1 1 2 2 1 1 2 2 2 2 2 2 1 1 1 2 2 2 2
3 2 2 3 4 3 4 4 5 5 5 5 6 5 5 4 3 3 3 2 2 2 2 2 1 1 1 2 2 1 1 1 2 2 1 1 1 1 1 1 1 1 2 2
5 3 1 2 3 4 4 5 5 5 5 5 6 5 5 5 3 2 2 2 2 2 2 2 2 2 1 1 1 1 1 2 2 1 1 1 1 1 1 1 1 1 1 1
8 5 2 2 3 4 5 5 5 4 5 5 5 5 5 5 3 2 2 1 1 2 2 2 2 2 2 2 1 2 2 2 1 1 1 1 1 0 1 1 2 2 1 1
7 5 5 5 4 4 5 5 5 5 5 5 4 5 5 5 3 3 3 2 1 2 2 2 2 2 2 2 2 2 1 1 1 1 2 2 1 1 3 2 2 2 2 1
6 6 5 5 4 3 4 4 5 5 5 5 4 4 4 4 3 3 3 2 2 2 2 2 2 2 2 2 2 2 2 0 0 1 2 2 2 2 1 2 2 1 1 2
4 5 6 5 4 4 4 5 5 5 5 4 4 3 3 4 3 3 2 2 2 2 2 2 2 2 2 2 2 2 1 1 0 1 1 1 1 1 2 2 1 0 1 2
5 5 5 4 4 4 4 4 5 5 4 4 3 3 3 3 3 3 2 1 1 2 2 2 2 2 2 2 2 2 1 0 1 1 1 1 1 1 1 1 1 2 2 2
5 4 4 4 4 4 4 5 5 5 4 4 3 3 3 2 2 2 2 1 1 2 2 2 2 2 2 2 2 1 1 2 2 1 1 1 1 1 1 1 1 2 2 2
5 5 5 4 5 5 5 5 5 4 4 4 4 3 2 2 2 1 1 1 1 1 2 2 2 2 2 2 2 1 1 1 2 1 1 1 1 1 1 1 2 2 2 2
4 4 4 5 5 5 5 5 4 3 4 4 4 2 2 2 2 2 1 1 1 1 2 2 2 2 2 2 1 1 1 1 1 1 1 1 1 1 1 2 2 3 2 2
3 3 4 4 4 4 4 4 3 3 3 3 3 2 1 1 1 1 1 1 1 1 1 1 2 2 2 2 2 1 1 1 1 1 1 2 2 1 1 2 2 2 2 2
2 2 3 4 4 4 3 3 3 2 2 2 3 2 1 1 1 1 0 0 0 0 1 2 1 1 1 2 2 1 1 1 1 1 1 1 1 1 1 2 2 2 2 2
3 3 3 4 3 3 3 3 2 2 2 3 2 2 1 1 1 0 0 0 0 1 1 2 1 1 2 2 1 1 1 1 1 1 1 1 1 1 1 1 2 2 1 1
3 3 3 3 2 2 2 2 2 2 2 2 1 1 1 1 1 0 0 0 0 2 1 1 1 2 2 1 1 1 1 1 1 1 1 1 1 1 1 1 1 1 1 1
3 3 2 2 2 2 2 2 2 2 2 2 2 2 2 1 1 1 0 0 1 1 1 1 2 2 1 1 0 1 1 1 1 1 1 1 1 1 1 1 1 1 1 1
2 2 2 2 2 2 2 1 1 1 1 1 1 1 1 1 0 0 1 1 1 2 1 2 3 2 1 1 1 1 1 1 1 1 1 1 1 1 1 1 1 1 1 1
2 2 2 2 2 2 2 1 1 1 1 1 1 1 1 1 1 1 1 1 2 2 1 1 2 1 1 1 1 1 1 1 2 2 1 1 1 1 1 1 1 1 1 1
2 2 2 2 2 1 2 2 2 1 1 1 1 0 0 1 2 2 1 2 2 2 1 1 1 1 1 1 1 1 2 2 2 2 2 1 1 1 1 1 1 1 1 1
2 1 1 1 1 1 1 2 2 1 1 1 1 0 1 1 1 2 2 2 2 2 1 1 1 2 2 2 2 1 1 2 2 2 2 1 1 1 1 1 1 1 1 1
Wind_Direction
276 276 279 274 268 260 259 264 270 279 282 289 337 50 86 87 79 81 88 98 104 106 119 134 151 151 150 160 169 174 189 204 201 192 193 192 186 191 194 193 195 194 193 193
275 270 269 270 261 255 254 262 270 274 277 295 330 11 352 53 73 68 47 67 58 60 73 179 169 157 164 162 168 175 183 191 184 208 193 190 193 195 199 195 196 200 201 197
278 270 272 261 254 245 246 253 265 272 285 339 350 358 355 18 71 77 39 66 14 319 302 284 268 200 187 184 166 166 168 166 180 220 197 196 203 198 203 201 199 212 214 200
280 276 258 254 306 281 258 261 271 276 320 338 343 350 358 340 339 322 329 8 341 310 299 290 296 274 208 179 175 171 175 181 188 215 210 201 207 220 213 206 208 216 221 213
265 271 267 253 278 294 277 273 305 318 331 334 326 307 282 333 337 334 356 337 273 271 279 286 298 276 237 207 193 181 189 192 168 176 207 197 221 235 229 220 216 221 223 217
260 266 268 276 14 340 298 261 353 334 337 333 322 297 301 333 338 337 4 7 3 357 339 307 278 253 230 228 215 209 194 174 156 170 197 217 224 230 250 233 222 230 236 227
254 261 267 352 6 336 283 357 16 8 3 355 339 332 330 339 358 13 15 15 10 357 331 298 288 240 231 250 246 232 194 167 160 185 209 213 210 223 239 238 233 234 234 222
249 255 255 45 38 352 353 9 1 3 6 357 344 338 342 347 354 6 6 6 359 345 325 312 300 258 239 257 265 239 182 170 190 203 219 204 182 204 216 225 240 238 240 231
259 265 22 28 20 17 349 343 345 348 349 342 331 331 338 334 341 352 348 341 345 336 331 341 333 298 259 264 272 255 182 200 214 202 184 175 163 177 203 200 212 255 246 242
276 241 281 347 358 349 333 329 332 333 329 320 319 326 327 321 324 333 338 333 331 326 328 339 336 328 316 321 307 260 228 228 203 181 140 102 134 156 176 194 202 223 253 259
276 279 270 284 307 318 320 323 324 322 315 315 314 314 318 314 318 321 317 305 310 302 308 317 330 345 354 349 316 273 243 228 188 144 138 132 102 91 176 160 159 174 218 241
274 286 289 288 288 301 306 312 317 321 320 314 303 304 310 310 314 314 305 311 298 306 315 324 336 336 350 342 315 294 273 244 150 147 145 144 143 62 51 85 100 119 123 116
289 303 299 299 285 281 284 295 303 304 302 301 304 305 307 308 309 306 301 322 317 321 319 326 334 340 358 344 324 321 314 312 111 144 152 156 164 163 132 47 65 100 140 126
292 295 288 285 289 296 292 291 292 293 295 297 304 310 309 308 310 306 308 328 327 321 328 340 348 350 358 353 339 325 335 8 85 153 153 175 184 187 179 171 165 140 171 153
268 273 275 281 289 295 299 296 292 291 291 293 296 302 304 304 307 313 323 351 351 330 331 345 353 353 360 356 340 336 2 14 126 113 120 138 144 173 177 168 150 130 104 112
268 270 266 268 278 284 285 286 288 291 297 305 310 312 306 302 315 329 337 354 328 317 328 341 347 354 7 6 353 359 43 44 59 77 88 108 128 136 127 124 123 122 120 114
256 253 255 262 270 274 273 278 281 287 297 299 298 297 294 303 312 307 315 355 355 346 346 339 346 6 17 14 1 355 69 104 99 101 101 91 101 121 117 107 105 103 105 107
267 263 262 262 263 266 269 275 274 281 289 292 290 296 300 293 285 294 305 325 16 5 352 352 20 19 27 28 5 17 73 105 107 108 103 97 99 92 92 100 104 101 96 85
270 266 270 277 279 271 262 263 266 277 288 289 284 278 270 276 287 297 311 348 341 325 337 19 33 19 24 38 33 49 80 99 94 89 99 101 94 86 95 100 106 111 118 115
278 286 287 285 281 276 274 272 269 271 276 279 280 271 264 268 279 285 349 341 294 20 26 30 30 27 35 48 41 37 72 96 98 90 89 105 112 99 93 96 101 110 116 125
268 274 276 271 272 275 273 270 262 266 273 266 262 267 271 275 273 246 165 296 1 56 48 42 42 51 53 43 33 45 77 87 85 88 103 111 118 113 104 102 104 109 116 121
271 264 265 268 276 280 277 267 256 264 278 278 277 272 271 262 267 305 156 178 116 94 85 96 91 77 63 44 66 64 68 80 86 82 90 101 110 111 106 103 105 107 110 113
269 263 265 275 276 280 284 265 250 250 261 258 256 255 249 244 207 186 209 117 108 101 102 109 107 104 67 55 95 97 95 92 96 97 88 89 94 94 99 101 110 114 111 103
279 280 282 282 278 272 265 262 243 248 261 268 257 246 224 208 225 168 119 126 111 114 103 126 126 127 100 114 120 109 105 102 97 93 87 76 78 82 83 89 101 100 96 74
292 287 276 268 258 244 241 235 208 218 247 273 269 249 224 189 169 138 123 128 133 125 116 138 142 132 122 120 122 127 119 116 110 97 86 88 81 75 68 65 67 63 63 73
281 273 269 269 267 228 220 208 209 214 205 223 251 240 139 122 122 123 134 140 138 133 127 127 145 149 122 111 108 111 108 100 92 93 94 95 93 87 76 64 47 46 32 27
268 274 279 278 289 261 224 206 202 204 202 205 226 216 158 134 129 136 136 129 130 131 132 129 127 124 119 112 105 99 100 102 102 108 112 110 107 100 90 60 40 27 19 10
Height
1471 1468 1468 1469 1469 1469 1472 1472 1476 1473 1471 1469 1468 1470 1471 1473 1475 1476 1478 1479 1480 1481 1481 1482 1482 1483 1483 1484 1485 1485 1486 1487 1489 1490 1491 1492 1493 1494 1495 1496 1497 1498 1499 1500
1473 1468 1467 1467 1466 1466 1468 1468 1469 1469 1469 1465 1467 1469 1471 1472 1474 1476 1477 1478 1479 1479 1480 1480 1480 1481 1481 1481 1482 1483 1483 1484 1485 1486 1487 1488 1489 1490 1491 1492 1493 1494 1495 1496
1477 1468 1468 1470 1462 1463 1464 1464 1466 1470 1469 1466 1467 1469 1471 1472 1474 1475 1476 1477 1477 1478 1478 1478 1478 1479 1479 1479 1479 1480 1480 1481 1482 1483 1484 1484 1485 1486 1487 1488 1489 1490 1491 1492
1477 1475 1482 1467 1457 1457 1461 1462 1463 1465 1466 1467 1469 1470 1472 1472 1473 1473 1474 1474 1475 1476 1476 1476 1476 1477 1477 1477 1477 1477 1478 1479 1479 1480 1480 1481 1481 1482 1483 1484 1485 1485 1486 1487
1478 1479 1471 1463 1460 1460 1463 1464 1463 1465 1466 1468 1469 1469 1470 1471 1471 1471 1472 1472 1473 1474 1474 1473 1474 1474 1474 1475 1475 1475 1475 1476 1476 1476 1476 1477 1478 1478 1479 1480 1480 1481 1482 1483
1477 1481 1479 1467 1461 1460 1463 1467 1465 1465 1466 1468 1468 1471 1471 1470 1470 1470 1470 1470 1470 1471 1471 1471 1471 1471 1472 1472 1472 1472 1472 1473 1473 1473 1473 1474 1474 1475 1475 1476 1476 1477 1478 1479
1476 1476 1468 1464 1463 1463 1472 1472 1467 1466 1467 1469 1470 1471 1471 1469 1468 1468 1468 1468 1468 1468 1468 1468 1468 1468 1468 1469 1469 1469 1470 1470 1470 1470 1470 1471 1471 1471 1472 1472 1473 1473 1474 1475
1472 1476 1474 1464 1464 1468 1470 1468 1468 1468 1469 1469 1469 1469 1469 1468 1467 1466 1466 1466 1466 1465 1465 1465 1465 1466 1465 1466 1466 1467 1467 1467 1467 1467 1468 1467 1468 1468 1468 1469 1469 1470 1470 1471
1466 1469 1465 1465 1465 1467 1468 1468 1469 1469 1469 1469 1468 1468 1467 1467 1466 1465 1465 1465 1464 1463 1463 1463 1463 1463 1463 1464 1464 1464 1464 1464 1464 1464 1464 1464 1464 1464 1465 1465 1466 1466 1467 1467
1463 1462 1464 1465 1466 1467 1468 1468 1468 1468 1468 1468 1467 1466 1466 1465 1464 1463 1463 1463 1462 1461 1461 1461 1460 1461 1461 1461 1461 1461 1461 1461 1461 1461 1461 1462 1462 1462 1462 1462 1462 1463 1463 1464
1462 1462 1463 1464 1465 1466 1466 1466 1466 1466 1466 1465 1465 1464 1464 1463 1462 1461 1461 1460 1460 1459 1459 1458 1458 1458 1458 1458 1458 1458 1458 1459 1459 1458 1459 1459 1459 1459 1459 1459 1459 1460 1460 1460
1463 1462 1462 1462 1463 1464 1464 1464 1464 1464 1463 1463 1463 1462 1461 1461 1460 1459 1459 1458 1458 1457 1457 1456 1456 1456 1455 1455 1455 1455 1456 1456 1456 1456 1456 1456 1456 1456 1456 1457 1457 1457 1457 1458
1460 1460 1460 1460 1461 1461 1462 1462 1462 1462 1461 1460 1460 1459 1459 1458 1457 1457 1456 1456 1455 1455 1454 1454 1454 1453 1453 1453 1453 1453 1453 1453 1453 1453 1453 1453 1453 1453 1453 1454 1454 1454 1454 1454
1458 1458 1458 1458 1458 1459 1459 1459 1459 1458 1458 1457 1457 1456 1456 1455 1455 1454 1454 1453 1453 1453 1452 1452 1451 1451 1451 1451 1451 1451 1450 1450 1450 1450 1450 1450 1450 1451 1451 1450 1450 1450 1451 1451
1455 1455 1455 1455 1455 1456 1456 1456 1455 1455 1454 1454 1453 1453 1453 1452 1452 1452 1451 1451 1450 1450 1450 1449 1449 1449 1448 1448 1448 1448 1447 1447 1447 1447 1448 1448 1448 1448 1448 1448 1448 1448 1448 1448
1451 1452 1452 1452 1452 1452 1452 1452 1452 1452 1451 1451 1450 1450 1450 1450 1449 1449 1449 1448 1448 1447 1447 1447 1446 1446 1446 1446 1446 1445 1445 1445 1445 1445 1445 1446 1446 1446 1446 1446 1446 1446 1446 1446
1448 1448 1448 1448 1449 1449 1449 1449 1449 1448 1448 1447 1447 1446 1446 1446 1446 1446 1446 1446 1445 1445 1445 1444 1444 1444 1443 1443 1443 1443 1443 1443 1443 1443 1443 1443 1444 1444 1444 1444 1444 1445 1445 1445
1444 1444 1445 1445 1445 1445 1445 1445 1445 1445 1444 1444 1443 1443 1443 1443 1443 1443 1443 1443 1443 1443 1442 1442 1442 1441 1441 1441 1441 1441 1441 1441 1441 1441 1441 1442 1442 1443 1442 1443 1443 1443 1443 1443
1441 1441 1441 1441 1441 1441 1441 1441 1441 1441 1441 1441 1440 1440 1441 1441 1441 1441 1441 1441 1440 1440 1440 1440 1439 1439 1439 1439 1439 1439 1439 1439 1439 1440 1440 1440 1441 1441 1441 1441 1441 1442 1442 1442
1437 1438 1438 1438 1438 1438 1437 1437 1438 1438 1438 1438 1438 1438 1438 1438 1438 1438 1438 1438 1438 1438 1438 1438 1438 1437 1437 1437 1437 1437 1437 1438 1438 1438 1438 1438 1439 1439 1439 1440 1440 1440 1441 1441
1434 1434 1434 1434 1434 1434 1434 1434 1434 1435 1435 1435 1435 1435 1435 1435 1436 1435 1435 1435 1436 1436 1436 1436 1436 1435 1435 1435 1436 1436 1436 1436 1436 1436 1437 1437 1437 1437 1438 1438 1438 1439 1439 1439
1431 1431 1431 1431 1431 1431 1431 1431 1431 1431 1432 1432 1432 1432 1432 1433 1433 1433 1433 1433 1433 1433 1433 1433 1433 1433 1433 1434 1434 1434 1434 1434 1435 1435 1435 1435 1435 1435 1435 1436 1436 1437 1437 1437
1428 1428 1428 1428 1427 1427 1428 1428 1428 1428 1428 1429 1429 1429 1430 1430 1430 1430 1430 1431 1431 1431 1431 1431 1431 1431 1431 1431 1431 1432 1432 1432 1432 1433 1433 1433 1433 1433 1434 1434 1435 1435 1435 1435
1426 1425 1425 1425 1425 1424 1425 1425 1425 1426 1426 1426 1427 1427 1427 1427 1427 1428 1428 1428 1429 1429 1429 1429 1429 1429 1429 1429 1429 1429 1429 1430 1430 1430 1431 1431 1431 1431 1432 1432 1433 1433 1433 1433
1423 1423 1422 1422 1422 1421 1422 1422 1423 1423 1423 1424 1424 1424 1424 1425 1425 1425 1425 1426 1426 1426 1426 1426 1426 1427 1427 1427 1427 1427 1427 1428 1428 1428 1429 1429 1429 1429 1430 1430 1430 1430 1430 1430
1421 1420 1420 1420 1419 1419 1419 1420 1420 1420 1420 1421 1421 1421 1422 1422 1422 1423 1423 1423 1423 1424 1424 1424 1424 1424 1425 1425 1425 1425 1425 1425 1426 1426 1426 1427 1427 1427 1427 1427 1427 1427 1427 1427
1419 1418 1418 1418 1417 1417 1417 1417 1417 1417 1418 1418 1418 1419 1419 1419 1420 1420 1421 1421 1421 1421 1422 1422 1422 1422 1423 1423 1423 1423 1423 1423 1424 1424 1424 1425 1425 1425 1425 1425 1425 1425 1425 1424